Year,Month,Day,Hour,Minute,Value (Times are PST for temperature in C)
2012,03,22,00,00,4.60
2012,03,22,00,01,4.60
2012,03,22,00,02,4.60
2012,03,22,00,03,4.60
2012,03,22,00,04,4.60
2012,03,22,00,05,4.60
2012,03,22,00,06,4.60
2012,03,22,00,07,4.60
2012,03,22,00,08,4.60
2012,03,22,00,09,4.60
2012,03,22,00,10,4.60
2012,03,22,00,11,4.60
2012,03,22,00,12,4.60
2012,03,22,00,13,4.60
2012,03,22,00,14,4.60
2012,03,22,00,15,4.60
2012,03,22,00,16,4.60
2012,03,22,00,17,4.60
2012,03,22,00,18,4.50
2012,03,22,00,19,4.50
2012,03,22,00,20,4.50
2012,03,22,00,21,4.50
2012,03,22,00,22,4.50
2012,03,22,00,23,4.50
2012,03,22,00,24,4.50
2012,03,22,00,25,4.50
2012,03,22,00,26,4.50
2012,03,22,00,27,4.50
2012,03,22,00,28,4.50
2012,03,22,00,29,4.50
2012,03,22,00,30,4.50
2012,03,22,00,31,4.50
2012,03,22,00,32,4.40
2012,03,22,00,33,4.40
2012,03,22,00,34,4.40
2012,03,22,00,35,4.40
2012,03,22,00,36,4.40
2012,03,22,00,37,4.40
2012,03,22,00,38,4.40
2012,03,22,00,39,4.40
2012,03,22,00,40,4.40
2012,03,22,00,41,4.40
2012,03,22,00,42,4.40
2012,03,22,00,43,4.40
2012,03,22,00,44,4.40
2012,03,22,00,45,4.40
2012,03,22,00,46,4.40
2012,03,22,00,47,4.40
2012,03,22,00,48,4.40
2012,03,22,00,49,4.40
2012,03,22,00,50,4.40
2012,03,22,00,51,4.40
2012,03,22,00,52,4.50
2012,03,22,00,53,4.50
2012,03,22,00,54,4.50
2012,03,22,00,55,4.50
2012,03,22,00,56,4.50
2012,03,22,00,57,4.50
2012,03,22,00,58,4.50
2012,03,22,00,59,4.50
2012,03,22,01,00,4.50
2012,03,22,01,01,4.50
2012,03,22,01,02,4.50
2012,03,22,01,03,4.50
2012,03,22,01,04,4.50
2012,03,22,01,05,4.50
2012,03,22,01,06,4.50
2012,03,22,01,07,4.50
2012,03,22,01,08,4.40
2012,03,22,01,09,4.40
2012,03,22,01,10,4.40
2012,03,22,01,11,4.40
2012,03,22,01,12,4.40
2012,03,22,01,13,4.30
2012,03,22,01,14,4.30
2012,03,22,01,15,4.30
2012,03,22,01,16,4.30
2012,03,22,01,17,4.30
2012,03,22,01,18,4.30
2012,03,22,01,19,4.30
2012,03,22,01,20,4.30
2012,03,22,01,21,4.30
2012,03,22,01,22,4.30
2012,03,22,01,23,4.30
2012,03,22,01,24,4.30
2012,03,22,01,25,4.30
2012,03,22,01,26,4.30
2012,03,22,01,27,4.30
2012,03,22,01,28,4.30
2012,03,22,01,29,4.30
2012,03,22,01,30,4.20
2012,03,22,01,31,4.20
2012,03,22,01,32,4.20
2012,03,22,01,33,4.20
2012,03,22,01,34,4.20
2012,03,22,01,35,4.10
2012,03,22,01,36,4.10
2012,03,22,01,37,4.10
2012,03,22,01,38,4.10
2012,03,22,01,39,4.00
2012,03,22,01,40,4.00
2012,03,22,01,41,4.00
2012,03,22,01,42,4.00
2012,03,22,01,43,4.00
2012,03,22,01,44,4.00
2012,03,22,01,45,4.00
2012,03,22,01,46,4.00
2012,03,22,01,47,3.90
2012,03,22,01,48,4.00
2012,03,22,01,49,3.90
2012,03,22,01,50,3.90
2012,03,22,01,51,3.90
2012,03,22,01,52,3.90
2012,03,22,01,53,3.90
2012,03,22,01,54,3.90
2012,03,22,01,55,4.00
2012,03,22,01,56,4.00
2012,03,22,01,57,4.00
2012,03,22,01,58,4.00
2012,03,22,01,59,4.00
2012,03,22,02,00,4.10
2012,03,22,02,01,4.10
2012,03,22,02,02,4.10
2012,03,22,02,03,4.10
2012,03,22,02,04,4.10
2012,03,22,02,05,4.10
2012,03,22,02,06,4.10
2012,03,22,02,07,4.10
2012,03,22,02,08,4.00
2012,03,22,02,09,4.00
2012,03,22,02,10,4.00
2012,03,22,02,11,4.00
2012,03,22,02,12,3.90
2012,03,22,02,13,3.90
2012,03,22,02,14,3.90
2012,03,22,02,15,3.90
2012,03,22,02,16,3.90
2012,03,22,02,17,3.90
2012,03,22,02,18,3.90
2012,03,22,02,19,4.00
2012,03,22,02,20,4.00
2012,03,22,02,21,4.00
2012,03,22,02,22,4.00
2012,03,22,02,23,4.00
2012,03,22,02,24,4.00
2012,03,22,02,25,4.10
2012,03,22,02,26,4.10
2012,03,22,02,27,4.10
2012,03,22,02,28,4.10
2012,03,22,02,29,4.10
2012,03,22,02,30,4.10
2012,03,22,02,31,4.10
2012,03,22,02,32,4.10
2012,03,22,02,33,4.10
2012,03,22,02,34,4.10
2012,03,22,02,35,4.10
2012,03,22,02,36,4.10
2012,03,22,02,37,4.10
2012,03,22,02,38,4.10
2012,03,22,02,39,4.10
2012,03,22,02,40,4.10
2012,03,22,02,41,4.20
2012,03,22,02,42,4.20
2012,03,22,02,43,4.20
2012,03,22,02,44,4.20
2012,03,22,02,45,4.30
2012,03,22,02,46,4.30
2012,03,22,02,47,4.30
2012,03,22,02,48,4.30
2012,03,22,02,49,4.40
2012,03,22,02,50,4.40
2012,03,22,02,51,4.40
2012,03,22,02,52,4.40
2012,03,22,02,53,4.40
2012,03,22,02,54,4.40
2012,03,22,02,55,4.40
2012,03,22,02,56,4.40
2012,03,22,02,57,4.30
2012,03,22,02,58,4.30
2012,03,22,02,59,4.30
2012,03,22,03,00,4.30
2012,03,22,03,01,4.20
2012,03,22,03,02,4.20
2012,03,22,03,03,4.20
2012,03,22,03,04,4.10
2012,03,22,03,05,4.10
2012,03,22,03,06,4.00
2012,03,22,03,07,4.00
2012,03,22,03,08,3.90
2012,03,22,03,09,3.90
2012,03,22,03,10,3.80
2012,03,22,03,11,3.80
2012,03,22,03,12,3.80
2012,03,22,03,13,3.80
2012,03,22,03,14,3.70
2012,03,22,03,15,3.70
2012,03,22,03,16,3.70
2012,03,22,03,17,3.70
2012,03,22,03,18,3.60
2012,03,22,03,19,3.60
2012,03,22,03,20,3.60
2012,03,22,03,21,3.50
2012,03,22,03,22,3.50
2012,03,22,03,23,3.50
2012,03,22,03,24,3.40
2012,03,22,03,25,3.40
2012,03,22,03,26,3.40
2012,03,22,03,27,3.40
2012,03,22,03,28,3.30
2012,03,22,03,29,3.30
2012,03,22,03,30,3.30
2012,03,22,03,31,3.30
2012,03,22,03,32,3.30
2012,03,22,03,33,3.30
2012,03,22,03,34,3.30
2012,03,22,03,35,3.20
2012,03,22,03,36,3.20
2012,03,22,03,37,3.20
2012,03,22,03,38,3.20
2012,03,22,03,39,3.10
2012,03,22,03,40,3.10
2012,03,22,03,41,3.10
2012,03,22,03,42,3.10
2012,03,22,03,43,3.10
2012,03,22,03,44,3.10
2012,03,22,03,45,3.10
2012,03,22,03,46,3.10
2012,03,22,03,47,3.00
2012,03,22,03,48,3.00
2012,03,22,03,49,3.10
2012,03,22,03,50,3.10
2012,03,22,03,51,3.00
2012,03,22,03,52,3.00
2012,03,22,03,53,2.90
2012,03,22,03,54,2.80
2012,03,22,03,55,2.70
2012,03,22,03,56,2.50
2012,03,22,03,57,2.50
2012,03,22,03,58,2.40
2012,03,22,03,59,2.30
2012,03,22,04,00,2.20
2012,03,22,04,01,2.10
2012,03,22,04,02,2.10
2012,03,22,04,03,2.00
2012,03,22,04,04,2.00
2012,03,22,04,05,1.90
2012,03,22,04,06,1.90
2012,03,22,04,07,1.80
2012,03,22,04,08,1.80
2012,03,22,04,09,1.80
2012,03,22,04,10,1.80
2012,03,22,04,11,1.70
2012,03,22,04,12,1.70
2012,03,22,04,13,1.70
2012,03,22,04,14,1.70
2012,03,22,04,15,1.70
2012,03,22,04,16,1.70
2012,03,22,04,17,1.70
2012,03,22,04,18,1.70
2012,03,22,04,19,1.70
2012,03,22,04,20,1.70
2012,03,22,04,21,1.70
2012,03,22,04,22,1.60
2012,03,22,04,23,1.60
2012,03,22,04,24,1.50
2012,03,22,04,25,1.40
2012,03,22,04,26,1.30
2012,03,22,04,27,1.30
2012,03,22,04,28,1.30
2012,03,22,04,29,1.20
2012,03,22,04,30,1.10
2012,03,22,04,31,1.10
2012,03,22,04,32,1.10
2012,03,22,04,33,1.00
2012,03,22,04,34,1.00
2012,03,22,04,35,1.00
2012,03,22,04,36,1.00
2012,03,22,04,37,1.00
2012,03,22,04,38,0.90
2012,03,22,04,39,0.90
2012,03,22,04,40,0.90
2012,03,22,04,41,0.90
2012,03,22,04,42,1.00
2012,03,22,04,43,1.00
2012,03,22,04,44,1.00
2012,03,22,04,45,1.00
2012,03,22,04,46,1.00
2012,03,22,04,47,1.00
2012,03,22,04,48,1.00
2012,03,22,04,49,1.00
2012,03,22,04,50,1.10
2012,03,22,04,51,1.10
2012,03,22,04,52,1.20
2012,03,22,04,53,1.20
2012,03,22,04,54,1.30
2012,03,22,04,55,1.30
2012,03,22,04,56,1.30
2012,03,22,04,57,1.30
2012,03,22,04,58,1.30
2012,03,22,04,59,1.30
2012,03,22,05,00,1.30
2012,03,22,05,01,1.40
2012,03,22,05,02,1.40
2012,03,22,05,03,1.40
2012,03,22,05,07,1.20
2012,03,22,05,10,1.10
2012,03,22,05,12,1.00
2012,03,22,05,13,0.90
2012,03,22,05,14,0.80
2012,03,22,05,15,0.80
2012,03,22,05,16,0.70
2012,03,22,05,17,0.70
2012,03,22,05,18,0.60
2012,03,22,05,19,0.60
2012,03,22,05,20,0.60
2012,03,22,05,21,0.60
2012,03,22,05,22,0.50
2012,03,22,05,23,0.50
2012,03,22,05,24,0.50
2012,03,22,05,25,0.40
2012,03,22,05,26,0.40
2012,03,22,05,27,0.40
2012,03,22,05,28,0.40
2012,03,22,05,29,0.30
2012,03,22,05,30,0.30
2012,03,22,05,31,0.30
2012,03,22,05,32,0.20
2012,03,22,05,33,0.20
2012,03,22,05,34,0.20
2012,03,22,05,35,0.10
2012,03,22,05,36,0.10
2012,03,22,05,37,0.10
2012,03,22,05,38,0.00
2012,03,22,05,39,0.00
2012,03,22,05,40,0.00
2012,03,22,05,41,0.00
2012,03,22,05,42,0.00
2012,03,22,05,43,0.00
2012,03,22,05,44,0.10
2012,03,22,05,45,0.10
2012,03,22,05,46,0.10
2012,03,22,05,47,0.10
2012,03,22,05,48,0.10
2012,03,22,05,49,0.10
2012,03,22,05,50,0.10
2012,03,22,05,51,0.00
2012,03,22,05,52,0.00
2012,03,22,05,53,0.00
2012,03,22,05,54,0.00
2012,03,22,05,55,0.00
2012,03,22,05,56,-0.10
2012,03,22,05,57,-0.10
2012,03,22,05,58,-0.10
2012,03,22,05,59,-0.10
2012,03,22,06,00,-0.10
2012,03,22,06,01,-0.10
2012,03,22,06,02,-0.20
2012,03,22,06,03,-0.20
2012,03,22,06,04,-0.20
2012,03,22,06,05,-0.20
2012,03,22,06,06,-0.30
2012,03,22,06,07,-0.30
2012,03,22,06,08,-0.30
2012,03,22,06,09,-0.30
2012,03,22,06,10,-0.40
2012,03,22,06,11,-0.40
2012,03,22,06,12,-0.40
2012,03,22,06,13,-0.40
2012,03,22,06,14,-0.40
2012,03,22,06,15,-0.50
2012,03,22,06,16,-0.50
2012,03,22,06,17,-0.50
2012,03,22,06,18,-0.50
2012,03,22,06,19,-0.60
2012,03,22,06,20,-0.60
2012,03,22,06,21,-0.60
2012,03,22,06,22,-0.60
2012,03,22,06,23,-0.60
2012,03,22,06,24,-0.60
2012,03,22,06,25,-0.60
2012,03,22,06,26,-0.60
2012,03,22,06,27,-0.60
2012,03,22,06,28,-0.60
2012,03,22,06,29,-0.60
2012,03,22,06,30,-0.70
2012,03,22,06,31,-0.70
2012,03,22,06,32,-0.70
2012,03,22,06,33,-0.70
2012,03,22,06,34,-0.70
2012,03,22,06,35,-0.70
2012,03,22,06,36,-0.70
2012,03,22,06,37,-0.70
2012,03,22,06,38,-0.70
2012,03,22,06,39,-0.70
2012,03,22,06,40,-0.80
2012,03,22,06,41,-0.80
2012,03,22,06,42,-0.80
2012,03,22,06,43,-0.80
2012,03,22,06,44,-0.80
2012,03,22,06,45,-0.80
2012,03,22,06,46,-0.80
2012,03,22,06,47,-0.80
2012,03,22,06,48,-0.80
2012,03,22,06,49,-0.80
2012,03,22,06,50,-0.80
2012,03,22,06,51,-0.80
2012,03,22,06,52,-0.80
2012,03,22,06,53,-0.80
2012,03,22,06,54,-0.80
2012,03,22,06,55,-0.80
2012,03,22,06,56,-0.80
2012,03,22,06,57,-0.80
2012,03,22,06,58,-0.80
2012,03,22,06,59,-0.80
2012,03,22,07,00,-0.70
2012,03,22,07,01,-0.70
2012,03,22,07,02,-0.70
2012,03,22,07,03,-0.70
2012,03,22,07,04,-0.70
2012,03,22,07,05,-0.70
2012,03,22,07,06,-0.70
2012,03,22,07,07,-0.70
2012,03,22,07,08,-0.80
2012,03,22,07,09,-0.80
2012,03,22,07,10,-0.80
2012,03,22,07,11,-0.80
2012,03,22,07,12,-0.90
2012,03,22,07,13,-0.90
2012,03,22,07,14,-0.90
2012,03,22,07,15,-0.90
2012,03,22,07,16,-1.00
2012,03,22,07,17,-0.90
2012,03,22,07,18,-1.00
2012,03,22,07,19,-1.00
2012,03,22,07,20,-1.00
2012,03,22,07,21,-1.00
2012,03,22,07,22,-1.00
2012,03,22,07,23,-1.00
2012,03,22,07,24,-1.00
2012,03,22,07,25,-1.00
2012,03,22,07,26,-1.10
2012,03,22,07,27,-1.10
2012,03,22,07,28,-1.10
2012,03,22,07,29,-1.10
2012,03,22,07,30,-1.10
2012,03,22,07,31,-1.00
2012,03,22,07,32,-1.00
2012,03,22,07,33,-1.00
2012,03,22,07,34,-1.00
2012,03,22,07,35,-0.90
2012,03,22,07,36,-0.90
2012,03,22,07,37,-0.90
2012,03,22,07,38,-0.90
2012,03,22,07,39,-0.80
2012,03,22,07,40,-0.80
2012,03,22,07,41,-0.70
2012,03,22,07,42,-0.70
2012,03,22,07,43,-0.70
2012,03,22,07,44,-0.60
2012,03,22,07,45,-0.60
2012,03,22,07,46,-0.50
2012,03,22,07,47,-0.40
2012,03,22,07,48,-0.40
2012,03,22,07,49,-0.40
2012,03,22,07,50,-0.30
2012,03,22,07,51,-0.30
2012,03,22,07,52,-0.20
2012,03,22,07,53,-0.20
2012,03,22,07,54,-0.20
2012,03,22,07,55,-0.20
2012,03,22,07,56,-0.10
2012,03,22,07,57,-0.10
2012,03,22,07,58,0.00
2012,03,22,07,59,0.00
2012,03,22,08,00,0.00
2012,03,22,08,01,0.10
2012,03,22,08,02,0.10
2012,03,22,08,03,0.10
2012,03,22,08,04,0.10
2012,03,22,08,05,0.10
2012,03,22,08,06,0.10
2012,03,22,08,07,0.20
2012,03,22,08,08,0.20
2012,03,22,08,09,0.20
2012,03,22,08,10,0.30
2012,03,22,08,11,0.30
2012,03,22,08,12,0.40
2012,03,22,08,13,0.40
2012,03,22,08,14,0.50
2012,03,22,08,15,0.50
2012,03,22,08,16,0.60
2012,03,22,08,17,0.60
2012,03,22,08,18,0.70
2012,03,22,08,19,0.80
2012,03,22,08,20,0.90
2012,03,22,08,21,1.00
2012,03,22,08,22,1.10
2012,03,22,08,23,1.20
2012,03,22,08,24,1.30
2012,03,22,08,25,1.30
2012,03,22,08,26,1.30
2012,03,22,08,27,1.40
2012,03,22,08,28,1.50
2012,03,22,08,29,1.60
2012,03,22,08,30,1.70
2012,03,22,08,31,1.80
2012,03,22,08,32,1.90
2012,03,22,08,33,2.00
2012,03,22,08,34,2.10
2012,03,22,08,35,2.10
2012,03,22,08,36,2.20
2012,03,22,08,37,2.30
2012,03,22,08,38,2.40
2012,03,22,08,39,2.40
2012,03,22,08,40,2.50
2012,03,22,08,41,2.60
2012,03,22,08,42,2.70
2012,03,22,08,43,2.80
2012,03,22,08,44,2.90
2012,03,22,08,45,3.10
2012,03,22,08,46,3.20
2012,03,22,08,47,3.30
2012,03,22,08,48,3.60
2012,03,22,08,49,3.90
2012,03,22,08,50,4.10
2012,03,22,08,51,4.30
2012,03,22,08,52,4.40
2012,03,22,08,53,4.50
2012,03,22,08,54,4.60
2012,03,22,08,55,4.70
2012,03,22,08,56,4.80
2012,03,22,08,57,5.00
2012,03,22,08,58,5.10
2012,03,22,08,59,5.20
2012,03,22,09,00,5.30
2012,03,22,09,01,5.40
2012,03,22,09,02,5.60
2012,03,22,09,03,5.70
2012,03,22,09,04,5.80
2012,03,22,09,05,5.90
2012,03,22,09,06,6.00
2012,03,22,09,07,6.10
2012,03,22,09,08,6.20
2012,03,22,09,09,6.30
2012,03,22,09,10,6.40
2012,03,22,09,11,6.40
2012,03,22,09,12,6.40
2012,03,22,09,13,6.50
2012,03,22,09,14,6.60
2012,03,22,09,15,6.70
2012,03,22,09,16,6.70
2012,03,22,09,17,6.70
2012,03,22,09,18,6.60
2012,03,22,09,19,6.60
2012,03,22,09,20,6.60
2012,03,22,09,21,6.60
2012,03,22,09,22,6.60
2012,03,22,09,23,6.60
2012,03,22,09,24,6.70
2012,03,22,09,25,6.70
2012,03,22,09,26,6.70
2012,03,22,09,27,6.70
2012,03,22,09,28,6.70
2012,03,22,09,29,6.70
2012,03,22,09,30,6.70
2012,03,22,09,31,6.80
2012,03,22,09,32,6.80
2012,03,22,09,33,6.90
2012,03,22,09,34,6.90
2012,03,22,09,35,7.00
2012,03,22,09,36,7.00
2012,03,22,09,37,7.00
2012,03,22,09,38,7.10
2012,03,22,09,39,7.10
2012,03,22,09,40,7.20
2012,03,22,09,41,7.20
2012,03,22,09,42,7.20
2012,03,22,09,43,7.20
2012,03,22,09,44,7.20
2012,03,22,09,45,7.20
2012,03,22,09,46,7.20
2012,03,22,09,47,7.20
2012,03,22,09,48,7.10
2012,03,22,09,49,7.10
2012,03,22,09,50,7.20
2012,03,22,09,51,7.20
2012,03,22,09,52,7.20
2012,03,22,09,53,7.20
2012,03,22,09,54,7.20
2012,03,22,09,55,7.20
2012,03,22,09,56,7.30
2012,03,22,09,57,7.40
2012,03,22,09,58,7.40
2012,03,22,09,59,7.40
2012,03,22,10,00,7.40
2012,03,22,10,01,7.40
2012,03,22,10,02,7.40
2012,03,22,10,03,7.40
2012,03,22,10,04,7.40
2012,03,22,10,05,7.40
2012,03,22,10,06,7.40
2012,03,22,10,07,7.30
2012,03,22,10,08,7.30
2012,03,22,10,09,7.30
2012,03,22,10,10,7.30
2012,03,22,10,11,7.30
2012,03,22,10,12,7.30
2012,03,22,10,13,7.40
2012,03,22,10,14,7.40
2012,03,22,10,15,7.40
2012,03,22,10,16,7.40
2012,03,22,10,17,7.20
2012,03,22,10,18,7.10
2012,03,22,10,19,6.90
2012,03,22,10,20,6.90
2012,03,22,10,21,7.00
2012,03,22,10,22,6.90
2012,03,22,10,23,7.00
2012,03,22,10,24,7.00
2012,03,22,10,25,7.10
2012,03,22,10,26,7.20
2012,03,22,10,27,7.20
2012,03,22,10,28,7.30
2012,03,22,10,29,7.30
2012,03,22,10,30,7.20
2012,03,22,10,31,7.30
2012,03,22,10,32,7.30
2012,03,22,10,33,7.30
2012,03,22,10,34,7.40
2012,03,22,10,35,7.40
2012,03,22,10,36,7.50
2012,03,22,10,37,7.50
2012,03,22,10,38,7.60
2012,03,22,10,39,7.60
2012,03,22,10,40,7.60
2012,03,22,10,41,7.60
2012,03,22,10,42,7.60
2012,03,22,10,43,7.50
2012,03,22,10,44,7.40
2012,03,22,10,45,7.30
2012,03,22,10,46,7.20
2012,03,22,10,47,7.20
2012,03,22,10,48,7.10
2012,03,22,10,49,7.00
2012,03,22,10,50,7.00
2012,03,22,10,51,6.90
2012,03,22,10,52,6.90
2012,03,22,10,53,6.80
2012,03,22,10,54,6.80
2012,03,22,10,55,6.80
2012,03,22,10,56,6.70
2012,03,22,10,57,6.70
2012,03,22,10,58,6.70
2012,03,22,10,59,6.70
2012,03,22,11,00,6.60
2012,03,22,11,01,6.50
2012,03,22,11,02,6.40
2012,03,22,11,03,6.40
2012,03,22,11,04,6.40
2012,03,22,11,05,6.40
2012,03,22,11,06,6.40
2012,03,22,11,07,6.40
2012,03,22,11,08,6.30
2012,03,22,11,09,6.30
2012,03,22,11,10,6.30
2012,03,22,11,11,6.30
2012,03,22,11,12,6.30
2012,03,22,11,13,6.20
2012,03,22,11,14,6.20
2012,03,22,11,15,6.20
2012,03,22,11,16,6.30
2012,03,22,11,17,6.40
2012,03,22,11,18,6.50
2012,03,22,11,19,6.60
2012,03,22,11,20,6.60
2012,03,22,11,21,6.60
2012,03,22,11,22,6.70
2012,03,22,11,23,6.70
2012,03,22,11,24,6.80
2012,03,22,11,25,6.70
2012,03,22,11,26,6.70
2012,03,22,11,27,6.70
2012,03,22,11,28,6.80
2012,03,22,11,29,6.80
2012,03,22,11,30,6.80
2012,03,22,11,31,6.80
2012,03,22,11,32,6.80
2012,03,22,11,33,6.80
2012,03,22,11,34,6.90
2012,03,22,11,35,6.90
2012,03,22,11,36,6.90
2012,03,22,11,37,6.90
2012,03,22,11,38,6.90
2012,03,22,11,39,6.90
2012,03,22,11,40,6.90
2012,03,22,11,41,6.90
2012,03,22,11,42,6.90
2012,03,22,11,43,6.90
2012,03,22,11,44,6.90
2012,03,22,11,45,7.00
2012,03,22,11,46,7.10
2012,03,22,11,47,7.10
2012,03,22,11,48,7.10
2012,03,22,11,49,7.10
2012,03,22,11,50,7.10
2012,03,22,11,51,7.20
2012,03,22,11,52,7.20
2012,03,22,11,53,7.10
2012,03,22,11,54,7.10
2012,03,22,11,55,7.10
2012,03,22,11,56,7.20
2012,03,22,11,57,7.30
2012,03,22,11,58,7.40
2012,03,22,11,59,7.40
2012,03,22,12,00,7.40
2012,03,22,12,01,7.40
2012,03,22,12,02,7.40
2012,03,22,12,03,7.40
2012,03,22,12,04,7.40
2012,03,22,12,05,7.40
2012,03,22,12,06,7.40
2012,03,22,12,07,7.40
2012,03,22,12,08,7.40
2012,03,22,12,09,7.50
2012,03,22,12,10,7.50
2012,03,22,12,11,7.50
2012,03,22,12,12,7.50
2012,03,22,12,13,7.50
2012,03,22,12,14,7.60
2012,03,22,12,15,7.60
2012,03,22,12,16,7.60
2012,03,22,12,17,7.60
2012,03,22,12,18,7.50
2012,03,22,12,19,7.50
2012,03,22,12,20,7.50
2012,03,22,12,21,7.60
2012,03,22,12,22,7.50
2012,03,22,12,23,7.40
2012,03,22,12,24,7.30
2012,03,22,12,25,7.30
2012,03,22,12,26,7.30
2012,03,22,12,27,7.40
2012,03,22,12,28,7.50
2012,03,22,12,29,7.50
2012,03,22,12,30,7.50
2012,03,22,12,31,7.40
2012,03,22,12,32,7.30
2012,03,22,12,33,7.30
2012,03,22,12,34,7.30
2012,03,22,12,35,7.40
2012,03,22,12,36,7.40
2012,03,22,12,37,7.40
2012,03,22,12,38,7.40
2012,03,22,12,39,7.30
2012,03,22,12,40,7.30
2012,03,22,12,41,7.40
2012,03,22,12,42,7.40
2012,03,22,12,43,7.60
2012,03,22,12,44,7.70
2012,03,22,12,45,7.80
2012,03,22,12,46,7.70
2012,03,22,12,47,7.70
2012,03,22,12,48,7.70
2012,03,22,12,49,7.70
2012,03,22,12,50,7.80
2012,03,22,12,51,7.80
2012,03,22,12,52,7.80
2012,03,22,12,53,7.70
2012,03,22,12,54,7.60
2012,03,22,12,55,7.60
2012,03,22,12,56,7.60
2012,03,22,12,57,7.60
2012,03,22,12,58,7.60
2012,03,22,12,59,7.60
2012,03,22,13,00,7.60
2012,03,22,13,01,7.50
2012,03,22,13,02,7.50
2012,03,22,13,03,7.50
2012,03,22,13,04,7.60
2012,03,22,13,05,7.60
2012,03,22,13,06,7.60
2012,03,22,13,07,7.50
2012,03,22,13,08,7.50
2012,03,22,13,09,7.60
2012,03,22,13,10,7.60
2012,03,22,13,11,7.70
2012,03,22,13,12,7.70
2012,03,22,13,13,7.80
2012,03,22,13,14,7.90
2012,03,22,13,15,7.90
2012,03,22,13,16,7.90
2012,03,22,13,17,7.90
2012,03,22,13,18,7.80
2012,03,22,13,19,7.80
2012,03,22,13,20,7.90
2012,03,22,13,21,7.90
2012,03,22,13,22,7.90
2012,03,22,13,23,7.90
2012,03,22,13,24,7.90
2012,03,22,13,25,7.90
2012,03,22,13,26,7.90
2012,03,22,13,27,7.90
2012,03,22,13,28,7.90
2012,03,22,13,29,8.00
2012,03,22,13,30,8.00
2012,03,22,13,31,8.10
2012,03,22,13,32,8.10
2012,03,22,13,33,8.10
2012,03,22,13,34,8.10
2012,03,22,13,35,8.10
2012,03,22,13,36,8.00
2012,03,22,13,37,8.00
2012,03,22,13,38,8.10
2012,03,22,13,39,8.20
2012,03,22,13,40,8.20
2012,03,22,13,41,8.20
2012,03,22,13,42,8.10
2012,03,22,13,43,8.10
2012,03,22,13,44,8.00
2012,03,22,13,45,8.00
2012,03,22,13,46,7.90
2012,03,22,13,47,8.00
2012,03,22,13,48,8.00
2012,03,22,13,49,8.00
2012,03,22,13,50,8.00
2012,03,22,13,51,8.10
2012,03,22,13,52,8.20
2012,03,22,13,53,8.20
2012,03,22,13,54,8.20
2012,03,22,13,55,8.20
2012,03,22,13,56,8.30
2012,03,22,13,57,8.30
2012,03,22,13,58,8.20
2012,03,22,13,59,8.20
2012,03,22,14,00,8.20
2012,03,22,14,01,8.30
2012,03,22,14,02,8.30
2012,03,22,14,03,8.20
2012,03,22,14,04,8.20
2012,03,22,14,05,8.20
2012,03,22,14,06,8.10
2012,03,22,14,07,8.00
2012,03,22,14,08,7.90
2012,03,22,14,09,7.90
2012,03,22,14,10,7.90
2012,03,22,14,11,7.90
2012,03,22,14,12,7.90
2012,03,22,14,13,7.90
2012,03,22,14,14,7.90
2012,03,22,14,15,8.00
2012,03,22,14,16,8.10
2012,03,22,14,17,8.20
2012,03,22,14,18,8.30
2012,03,22,14,19,8.30
2012,03,22,14,20,8.40
2012,03,22,14,21,8.30
2012,03,22,14,22,8.20
2012,03,22,14,23,8.20
2012,03,22,14,24,8.10
2012,03,22,14,25,8.00
2012,03,22,14,26,8.00
2012,03,22,14,27,8.00
2012,03,22,14,28,8.00
2012,03,22,14,29,8.00
2012,03,22,14,30,8.00
2012,03,22,14,31,8.00
2012,03,22,14,32,8.00
2012,03,22,14,33,8.00
2012,03,22,14,34,8.10
2012,03,22,14,35,8.10
2012,03,22,14,36,8.10
2012,03,22,14,37,8.20
2012,03,22,14,38,8.20
2012,03,22,14,39,8.20
2012,03,22,14,40,8.20
2012,03,22,14,41,8.30
2012,03,22,14,42,8.40
2012,03,22,14,43,8.50
2012,03,22,14,44,8.50
2012,03,22,14,45,8.60
2012,03,22,14,46,8.70
2012,03,22,14,47,8.70
2012,03,22,14,48,8.70
2012,03,22,14,49,8.70
2012,03,22,14,50,8.70
2012,03,22,14,51,8.60
2012,03,22,14,52,8.60
2012,03,22,14,53,8.60
2012,03,22,14,54,8.60
2012,03,22,14,55,8.60
2012,03,22,14,56,8.60
2012,03,22,14,57,8.60
2012,03,22,14,58,8.60
2012,03,22,14,59,8.60
2012,03,22,15,00,8.70
2012,03,22,15,01,8.70
2012,03,22,15,02,8.70
2012,03,22,15,03,8.80
2012,03,22,15,04,8.80
2012,03,22,15,05,8.80
2012,03,22,15,06,8.70
2012,03,22,15,07,8.80
2012,03,22,15,08,8.80
2012,03,22,15,09,8.80
2012,03,22,15,10,8.90
2012,03,22,15,11,8.90
2012,03,22,15,12,8.80
2012,03,22,15,13,8.80
2012,03,22,15,14,8.80
2012,03,22,15,15,8.80
2012,03,22,15,16,8.80
2012,03,22,15,17,8.80
2012,03,22,15,18,8.80
2012,03,22,15,19,8.80
2012,03,22,15,20,8.80
2012,03,22,15,21,8.80
2012,03,22,15,22,8.80
2012,03,22,15,23,8.80
2012,03,22,15,24,8.90
2012,03,22,15,25,8.90
2012,03,22,15,26,8.90
2012,03,22,15,27,9.00
2012,03,22,15,28,9.00
2012,03,22,15,29,9.10
2012,03,22,15,30,9.00
2012,03,22,15,31,9.00
2012,03,22,15,32,8.90
2012,03,22,15,33,8.90
2012,03,22,15,34,8.90
2012,03,22,15,35,9.00
2012,03,22,15,36,9.00
2012,03,22,15,37,9.00
2012,03,22,15,38,9.00
2012,03,22,15,39,8.90
2012,03,22,15,40,8.80
2012,03,22,15,41,8.70
2012,03,22,15,42,8.60
2012,03,22,15,43,8.60
2012,03,22,15,44,8.60
2012,03,22,15,45,8.60
2012,03,22,15,46,8.60
2012,03,22,15,47,8.60
2012,03,22,15,48,8.60
2012,03,22,15,49,8.60
2012,03,22,15,50,8.50
2012,03,22,15,51,8.50
2012,03,22,15,52,8.50
2012,03,22,15,53,8.50
2012,03,22,15,54,8.40
2012,03,22,15,55,8.40
2012,03,22,15,56,8.50
2012,03,22,15,57,8.50
2012,03,22,15,58,8.50
2012,03,22,15,59,8.50
2012,03,22,16,00,8.50
2012,03,22,16,01,8.50
2012,03,22,16,02,8.40
2012,03,22,16,03,8.50
2012,03,22,16,04,8.40
2012,03,22,16,05,8.40
2012,03,22,16,06,8.40
2012,03,22,16,07,8.40
2012,03,22,16,08,8.50
2012,03,22,16,09,8.50
2012,03,22,16,10,8.50
2012,03,22,16,11,8.60
2012,03,22,16,12,8.60
2012,03,22,16,13,8.60
2012,03,22,16,14,8.60
2012,03,22,16,15,8.60
2012,03,22,16,16,8.70
2012,03,22,16,17,8.70
2012,03,22,16,18,8.70
2012,03,22,16,19,8.70
2012,03,22,16,20,8.70
2012,03,22,16,21,8.70
2012,03,22,16,22,8.70
2012,03,22,16,23,8.70
2012,03,22,16,24,8.60
2012,03,22,16,25,8.60
2012,03,22,16,26,8.70
2012,03,22,16,27,8.70
2012,03,22,16,28,8.70
2012,03,22,16,29,8.70
2012,03,22,16,30,8.70
2012,03,22,16,31,8.60
2012,03,22,16,32,8.60
2012,03,22,16,33,8.60
2012,03,22,16,34,8.60
2012,03,22,16,35,8.60
2012,03,22,16,36,8.60
2012,03,22,16,37,8.60
2012,03,22,16,38,8.60
2012,03,22,16,39,8.60
2012,03,22,16,40,8.60
2012,03,22,16,41,8.60
2012,03,22,16,42,8.60
2012,03,22,16,43,8.60
2012,03,22,16,44,8.60
2012,03,22,16,45,8.60
2012,03,22,16,46,8.60
2012,03,22,16,47,8.70
2012,03,22,16,48,8.70
2012,03,22,16,49,8.70
2012,03,22,16,50,8.80
2012,03,22,16,51,8.80
2012,03,22,16,52,8.80
2012,03,22,16,53,8.80
2012,03,22,16,54,8.80
2012,03,22,16,55,8.80
2012,03,22,16,56,8.80
2012,03,22,16,57,8.80
2012,03,22,16,58,8.80
2012,03,22,16,59,8.80
2012,03,22,17,00,8.80
2012,03,22,17,01,8.80
2012,03,22,17,02,8.80
2012,03,22,17,03,8.80
2012,03,22,17,04,8.80
2012,03,22,17,05,8.80
2012,03,22,17,06,8.80
2012,03,22,17,07,8.80
2012,03,22,17,08,8.80
2012,03,22,17,09,8.80
2012,03,22,17,10,8.80
2012,03,22,17,11,8.70
2012,03,22,17,12,8.70
2012,03,22,17,13,8.80
2012,03,22,17,14,8.80
2012,03,22,17,15,8.80
2012,03,22,17,16,8.80
2012,03,22,17,17,8.80
2012,03,22,17,18,8.80
2012,03,22,17,19,8.80
2012,03,22,17,20,8.80
2012,03,22,17,21,8.80
2012,03,22,17,22,8.70
2012,03,22,17,23,8.70
2012,03,22,17,24,8.70
2012,03,22,17,25,8.70
2012,03,22,17,26,8.70
2012,03,22,17,27,8.70
2012,03,22,17,28,8.60
2012,03,22,17,29,8.60
2012,03,22,17,30,8.60
2012,03,22,17,31,8.60
2012,03,22,17,32,8.60
2012,03,22,17,33,8.60
2012,03,22,17,34,8.60
2012,03,22,17,35,8.60
2012,03,22,17,36,8.60
2012,03,22,17,37,8.60
2012,03,22,17,38,8.60
2012,03,22,17,39,8.60
2012,03,22,17,40,8.60
2012,03,22,17,41,8.50
2012,03,22,17,42,8.50
2012,03,22,17,43,8.60
2012,03,22,17,44,8.60
2012,03,22,17,45,8.60
2012,03,22,17,46,8.60
2012,03,22,17,47,8.50
2012,03,22,17,48,8.50
2012,03,22,17,49,8.50
2012,03,22,17,50,8.50
2012,03,22,17,51,8.50
2012,03,22,17,52,8.50
2012,03,22,17,53,8.50
2012,03,22,17,54,8.50
2012,03,22,17,55,8.50
2012,03,22,17,56,8.50
2012,03,22,17,57,8.50
2012,03,22,17,58,8.50
2012,03,22,17,59,8.50
2012,03,22,18,00,8.50
2012,03,22,18,01,8.40
2012,03,22,18,02,8.40
2012,03,22,18,03,8.40
2012,03,22,18,04,8.40
2012,03,22,18,05,8.40
2012,03,22,18,06,8.40
2012,03,22,18,07,8.40